Weather History for Olivia, MN

Change the Weather History Date:

Friday, September 20, 2013

  Actual Average (KRWF) Record (KRWF)
Temperature  
Mean Temperature 52 °F -  
Max Temperature 59 °F 68 °F 92 °F (1941)
Min Temperature 42 °F 48 °F 30 °F (1991)
Degree Days  
Heating Degree Days 14    
Growing Degree Days 2 (Base 50)    
Moisture  
Dew Point 48 °F    
Average Humidity 80    
Maximum Humidity 94    
Minimum Humidity 59    
Precipitation  
Precipitation 0.00 in - - ()
Sea Level Pressure  
Sea Level Pressure 29.91 in    
Wind  
Wind Speed 11 mph (WNW)    
Max Wind Speed 20 mph    
Max Gust Speed 25 mph    
Visibility 10 miles    
Events      
Averages and records for this station are not official NWS values.
T = Trace of Precipitation, MM = Missing Value Source: NWS Daily Summary

Daily Weather History Graph

Daily Weather History Graph

Search for Another Location

Airport:

Trip Planner

Search our weather history database for the weather conditions in past years. The results will help you decide how hot, cold, wet, or windy it might be!

Date:

Astronomy

Sep. 20, 2013 Rise Set
Actual Time 7:05 AM CDT 7:20 PM CDT
Civil Twilight 6:35 AM CDT 7:50 PM CDT
Nautical Twilight 6:01 AM CDT 8:24 PM CDT
Astronomical Twilight 5:26 AM CDT 8:59 PM CDT
Moon 7:49 PM CDT 8:25 AM CDT
Length of Visible Light 13h 14m
Length of Day
12h 15m
Full, 98% of the Moon is Illuminated
Sep 20
Full
Sep 26
Last Quarter
Oct 4
New
Oct 11
First Quarter
Oct 18
Full

Hourly Weather History & Observations

Time (CDT) Temp. Windchill Dew Point Humidity Pressure Visibility Wind Dir Wind Speed Gust Speed Precip Events Conditions
12:14 AM 59.0 °F - 51.8 °F 77% 29.87 in 10.0 mi WNW 9.2 mph - N/A   Overcast
12:33 AM 57.2 °F - 50.0 °F 77% 29.87 in 10.0 mi WNW 13.8 mph - N/A   Scattered Clouds
12:53 AM 57.2 °F - 50.0 °F 77% 29.87 in 10.0 mi WNW 11.5 mph 16.1 mph N/A   Clear
1:14 AM 55.4 °F - 50.0 °F 82% 29.87 in 10.0 mi West 8.1 mph - N/A   Clear
1:33 AM 53.6 °F - 50.0 °F 88% 29.87 in 10.0 mi West 9.2 mph - N/A   Clear
1:54 AM 53.6 °F - 50.0 °F 88% 29.87 in 10.0 mi West 10.4 mph - N/A   Clear
2:13 AM 53.6 °F - 50.0 °F 88% 29.87 in 10.0 mi West 9.2 mph - N/A   Clear
2:33 AM 53.6 °F - 50.0 °F 88% 29.86 in 10.0 mi West 9.2 mph - N/A   Clear
2:54 AM 53.6 °F - 50.0 °F 88% 29.86 in 10.0 mi West 9.2 mph - N/A   Clear
3:14 AM 53.6 °F - 50.0 °F 88% 29.86 in 10.0 mi West 11.5 mph - N/A   Scattered Clouds
3:33 AM 53.6 °F - 50.0 °F 88% 29.86 in 10.0 mi West 11.5 mph - N/A   Mostly Cloudy
3:54 AM 53.6 °F - 50.0 °F 88% 29.86 in 10.0 mi West 12.7 mph - N/A   Overcast
4:13 AM 53.6 °F - 50.0 °F 88% 29.86 in 10.0 mi West 10.4 mph - N/A   Overcast
4:34 AM 53.6 °F - 50.0 °F 88% 29.86 in 10.0 mi West 10.4 mph - N/A   Overcast
4:53 AM 53.6 °F - 50.0 °F 88% 29.86 in 10.0 mi West 12.7 mph - N/A   Overcast
5:13 AM 53.6 °F - 50.0 °F 88% 29.86 in 2.5 mi West 11.5 mph 16.1 mph N/A   Overcast
5:34 AM 53.6 °F - 51.8 °F 94% 29.86 in 5.0 mi West 12.7 mph - N/A   Overcast
5:53 AM 53.6 °F - 51.8 °F 94% 29.86 in 3.0 mi West 15.0 mph 19.6 mph N/A   Overcast
6:13 AM 53.6 °F - 51.8 °F 94% 29.86 in 7.0 mi West 12.7 mph 17.3 mph N/A   Overcast
6:34 AM 53.6 °F - 51.8 °F 94% 29.86 in 5.0 mi WNW 9.2 mph - N/A   Overcast
6:53 AM 53.6 °F - 51.8 °F 94% 29.87 in 10.0 mi NW 16.1 mph 21.9 mph N/A   Overcast
7:13 AM 53.6 °F - 51.8 °F 94% 29.88 in 10.0 mi NW 13.8 mph 20.7 mph N/A   Overcast
7:34 AM 53.6 °F - 51.8 °F 94% 29.88 in 10.0 mi NW 12.7 mph 19.6 mph N/A   Overcast
7:53 AM 53.6 °F - 51.8 °F 94% 29.88 in 10.0 mi WNW 13.8 mph 17.3 mph N/A   Overcast
8:13 AM 53.6 °F - 51.8 °F 94% 29.89 in 10.0 mi WNW 10.4 mph 19.6 mph N/A   Overcast
8:34 AM 53.6 °F - 50.0 °F 88% 29.90 in 10.0 mi WNW 12.7 mph 21.9 mph N/A   Overcast
8:53 AM 53.6 °F - 50.0 °F 88% 29.91 in 10.0 mi WNW 10.4 mph 23.0 mph N/A   Overcast
9:13 AM 53.6 °F - 50.0 °F 88% 29.92 in 10.0 mi WNW 10.4 mph 20.7 mph N/A   Overcast
9:34 AM 55.4 °F - 48.2 °F 77% 29.92 in 10.0 mi NW 18.4 mph 25.3 mph N/A   Overcast
9:53 AM 57.2 °F - 50.0 °F 77% 29.92 in 10.0 mi NNW 13.8 mph 25.3 mph N/A   Mostly Cloudy
10:13 AM 57.2 °F - 48.2 °F 72% 29.92 in 10.0 mi NW 19.6 mph 25.3 mph N/A   Mostly Cloudy
10:34 AM 59.0 °F - 48.2 °F 67% 29.93 in 10.0 mi NW 18.4 mph 24.2 mph N/A   Scattered Clouds
10:53 AM 59.0 °F - 48.2 °F 67% 29.93 in 10.0 mi NW 17.3 mph 24.2 mph N/A   Mostly Cloudy
11:13 AM 59.0 °F - 48.2 °F 67% 29.94 in 10.0 mi NW 16.1 mph 21.9 mph N/A   Mostly Cloudy
11:34 AM 59.0 °F - 50.0 °F 72% 29.94 in 10.0 mi West 17.3 mph 23.0 mph N/A   Overcast
11:54 AM 59.0 °F - 50.0 °F 72% 29.94 in 10.0 mi WNW 12.7 mph 23.0 mph N/A   Overcast
12:14 PM 59.0 °F - 48.2 °F 67% 29.94 in 10.0 mi WNW 13.8 mph 20.7 mph N/A   Overcast
12:33 PM 57.2 °F - 46.4 °F 67% 29.94 in 10.0 mi NW 15.0 mph 20.7 mph N/A   Overcast
12:53 PM 57.2 °F - 48.2 °F 72% 29.94 in 10.0 mi NW 13.8 mph 19.6 mph N/A   Overcast
1:14 PM 59.0 °F - 48.2 °F 67% 29.94 in 10.0 mi WNW 12.7 mph 20.7 mph N/A   Overcast
1:33 PM 59.0 °F - 48.2 °F 67% 29.93 in 10.0 mi WNW 17.3 mph 20.7 mph N/A   Overcast
1:53 PM 59.0 °F - 48.2 °F 67% 29.93 in 10.0 mi West 17.3 mph 21.9 mph N/A   Overcast
2:14 PM 59.0 °F - 50.0 °F 72% 29.93 in 10.0 mi WNW 16.1 mph 25.3 mph N/A   Overcast
2:33 PM 57.2 °F - 48.2 °F 72% 29.93 in 10.0 mi West 13.8 mph 21.9 mph N/A   Overcast
2:54 PM 57.2 °F - 48.2 °F 72% 29.93 in 10.0 mi WNW 12.7 mph 19.6 mph N/A   Overcast
3:13 PM 59.0 °F - 48.2 °F 67% 29.93 in 10.0 mi NW 13.8 mph 20.7 mph N/A   Overcast
3:33 PM 57.2 °F - 50.0 °F 77% 29.93 in 10.0 mi WNW 13.8 mph 20.7 mph N/A   Overcast
3:53 PM 53.6 °F - 50.0 °F 88% 29.94 in 10.0 mi NW 13.8 mph 19.6 mph N/A   Overcast
4:14 PM 57.2 °F - 48.2 °F 72% 29.94 in 10.0 mi WNW 9.2 mph 24.2 mph N/A   Overcast
4:33 PM 57.2 °F - 48.2 °F 72% 29.94 in 10.0 mi WNW 13.8 mph 18.4 mph N/A   Overcast
4:53 PM 57.2 °F - 46.4 °F 67% 29.93 in 10.0 mi WNW 10.4 mph 17.3 mph N/A   Overcast
5:14 PM 59.0 °F - 46.4 °F 63% 29.93 in 10.0 mi WNW 15.0 mph 19.6 mph N/A   Overcast
5:33 PM 57.2 °F - 44.6 °F 63% 29.93 in 10.0 mi WNW 11.5 mph - N/A   Mostly Cloudy
5:54 PM 57.2 °F - 44.6 °F 63% 29.93 in 10.0 mi WNW 8.1 mph - N/A   Mostly Cloudy
6:13 PM 57.2 °F - 44.6 °F 63% 29.93 in 10.0 mi WNW 8.1 mph - N/A   Overcast
6:34 PM 57.2 °F - 42.8 °F 59% 29.93 in 10.0 mi NW 9.2 mph 19.6 mph N/A   Scattered Clouds
6:53 PM 57.2 °F - 44.6 °F 63% 29.93 in 10.0 mi NW 5.8 mph - N/A   Clear
7:13 PM 53.6 °F - 44.6 °F 72% 29.93 in 10.0 mi WNW 3.5 mph - N/A   Mostly Cloudy
7:33 PM 53.6 °F - 44.6 °F 72% 29.94 in 10.0 mi NW 3.5 mph - N/A   Overcast
7:54 PM 53.6 °F - 46.4 °F 77% 29.95 in 10.0 mi Calm Calm - N/A   Overcast
8:13 PM 51.8 °F - 46.4 °F 82% 29.95 in 10.0 mi Calm Calm - N/A   Overcast
8:34 PM 51.8 °F - 46.4 °F 82% 29.96 in 10.0 mi West 3.5 mph - N/A   Scattered Clouds
8:53 PM 50.0 °F - 44.6 °F 82% 29.96 in 10.0 mi West 3.5 mph - N/A   Clear
9:13 PM 50.0 °F - 44.6 °F 82% 29.96 in 10.0 mi Calm Calm - N/A   Clear
9:33 PM 50.0 °F - 44.6 °F 82% 29.96 in 10.0 mi WNW 3.5 mph - N/A   Clear
9:54 PM 50.0 °F - 44.6 °F 82% 29.96 in 10.0 mi Calm Calm - N/A   Clear
10:13 PM 50.0 °F - 44.6 °F 82% 29.96 in 10.0 mi Calm Calm - N/A   Clear
10:34 PM 46.4 °F - 42.8 °F 87% 29.97 in 10.0 mi Calm Calm - N/A   Clear
10:53 PM 46.4 °F 45.2 °F 42.8 °F 87% 29.97 in 10.0 mi West 3.5 mph - N/A   Clear
11:13 PM 44.6 °F - 41.0 °F 87% 29.97 in 10.0 mi Calm Calm - N/A   Clear
11:33 PM 44.6 °F - 41.0 °F 87% 29.97 in 10.0 mi Calm Calm - N/A   Clear
11:53 PM 42.8 °F - 41.0 °F 93% 29.97 in 10.0 mi Calm Calm - N/A   Clear